Location: Aboncourt
(47.7710°N, 5.9826°E)
Time: 03:27:14
(UTC+00:00)

ATLAS CENTAUR R/B - Pass Details

Date: 05 July 2020
Orbit: 475 x 672 km, 64.7° (Epoch: 13 July)

Event Time Altitude Azimuth Distance (km) Brightness Sun altitude
Rises 20:12:31 0° 328° (NNW) 2,595 6.7 -5.5°
Reaches altitude 10° 20:15:01 10° 343° (NNW) 1,686 4.9 -5.8°
Maximum altitude 20:18:05 24° 38° (NE) 1,050 2.8 -6.2°
Drops below altitude 10° 20:21:06 10° 94° (E) 1,647 3.3 -6.5°
Enters shadow 20:22:16 - 103° (ESE) 2,057 3.7 -6.7°
